• In Deutschland
  • Länderverzeichnis
  • Für 7 Tage
  • Wassertemperatur
  • Satellitenkarten
  • Wetterkarte
  • Widgets
  • user-avatar
    Anmelden

    Stündliche Wetter Lezhe

    Heute, 27 März, Montag

    Zeit Temperatur Niederschläge Wind Luftdruck Luftfeuchtigkeit
    00:00 +6°C° 0 mm 5 m/S 738 mmHg 83%
    01:00 +5°C° 0 mm 5 m/S 738 mmHg 82%
    02:00 +5°C° 0 mm 5 m/S 738 mmHg 81%
    03:00 +5°C° 0 mm 5 m/S 738 mmHg 81%
    04:00 +3°C° 0 mm 5 m/S 738 mmHg 81%
    05:00 +5°C° 0 mm 5 m/S 739 mmHg 79%
    06:00 +5°C° 0 mm 5 m/S 739 mmHg 78%
    07:00 +5°C° 0 mm 5 m/S 739 mmHg 77%
    08:00 +7°C° 0 mm 4 m/S 739 mmHg 72%
    09:00 +8°C° 0 mm 4 m/S 739 mmHg 67%
    10:00 +11°C° 0 mm 4 m/S 740 mmHg 62%
    11:00 +12°C° 0 mm 4 m/S 739 mmHg 60%
    12:00 +12°C° 0 mm 4 m/S 739 mmHg 58%
    13:00 +13°C° 0 mm 4 m/S 739 mmHg 56%
    14:00 +13°C° 0,1 mm 4 m/S 739 mmHg 58%
    15:00 +13°C° 0,1 mm 4 m/S 739 mmHg 59%
    16:00 +13°C° 0,1 mm 4 m/S 739 mmHg 60%
    17:00 +11°C° 0 mm 4 m/S 739 mmHg 65%
    18:00 +8°C° 0 mm 4 m/S 740 mmHg 69%
    19:00 +8°C° 0 mm 3 m/S 740 mmHg 74%
    20:00 +7°C° 0 mm 3 m/S 740 mmHg 74%
    21:00 +7°C° 0 mm 3 m/S 741 mmHg 75%
    22:00 +5°C° 0 mm 3 m/S 741 mmHg 75%
    23:00 +5°C° 0 mm 3 m/S 741 mmHg 75%

    Morgen, 28 März, Dienstag

    Zeit Temperatur Niederschläge Wind Luftdruck Luftfeuchtigkeit
    00:00 +5°C° 0 mm 3 m/S 741 mmHg 75%
    01:00 +5°C° 0 mm 3 m/S 742 mmHg 75%
    02:00 +4°C° 0 mm 3 m/S 742 mmHg 75%
    03:00 +4°C° 0 mm 3 m/S 741 mmHg 76%
    04:00 +4°C° 0 mm 3 m/S 741 mmHg 76%
    05:00 +5°C° 0 mm 3 m/S 741 mmHg 74%
    06:00 +5°C° 0 mm 3 m/S 742 mmHg 71%
    07:00 +7°C° 0 mm 3 m/S 742 mmHg 69%
    08:00 +9°C° 0 mm 3 m/S 742 mmHg 63%
    09:00 +11°C° 0 mm 3 m/S 742 mmHg 56%
    10:00 +13°C° 0 mm 3 m/S 742 mmHg 50%
    11:00 +14°C° 0 mm 3 m/S 741 mmHg 47%
    12:00 +16°C° 0 mm 3 m/S 741 mmHg 45%
    13:00 +18°C° 0 mm 2 m/S 741 mmHg 42%
    14:00 +17°C° 0 mm 3 m/S 741 mmHg 44%
    15:00 +17°C° 0 mm 3 m/S 741 mmHg 46%
    16:00 +17°C° 0 mm 4 m/S 741 mmHg 48%
    17:00 +14°C° 0 mm 3 m/S 741 mmHg 55%
    18:00 +11°C° 0 mm 3 m/S 741 mmHg 62%
    19:00 +9°C° 0 mm 3 m/S 741 mmHg 70%
    20:00 +9°C° 0 mm 3 m/S 742 mmHg 70%
    21:00 +9°C° 0 mm 3 m/S 742 mmHg 69%
    22:00 +8°C° 0 mm 3 m/S 742 mmHg 69%
    23:00 +8°C° 0 mm 3 m/S 742 mmHg 70%

    übermorgen, 29 März, Mittwoch

    Zeit Temperatur Niederschläge Wind Luftdruck Luftfeuchtigkeit
    00:00 +8°C° 0 mm 3 m/S 742 mmHg 71%
    01:00 +7°C° 0 mm 2 m/S 742 mmHg 72%
    02:00 +7°C° 0 mm 2 m/S 742 mmHg 73%
    03:00 +7°C° 0 mm 2 m/S 742 mmHg 74%
    04:00 +7°C° 0 mm 2 m/S 742 mmHg 74%
    05:00 +8°C° 0 mm 2 m/S 742 mmHg 72%
    06:00 +9°C° 0 mm 2 m/S 742 mmHg 70%
    07:00 +9°C° 0 mm 2 m/S 742 mmHg 68%
    08:00 +13°C° 0 mm 2 m/S 742 mmHg 61%
    09:00 +15°C° 0 mm 2 m/S 742 mmHg 53%
    10:00 +18°C° 0 mm 2 m/S 742 mmHg 46%
    11:00 +19°C° 0 mm 2 m/S 742 mmHg 44%
    12:00 +20°C° 0 mm 2 m/S 742 mmHg 41%
    13:00 +21°C° 0 mm 3 m/S 741 mmHg 39%
    14:00 +20°C° 0 mm 3 m/S 741 mmHg 42%
    15:00 +20°C° 0 mm 3 m/S 741 mmHg 44%
    16:00 +19°C° 0 mm 3 m/S 740 mmHg 47%
    17:00 +17°C° 0 mm 3 m/S 741 mmHg 54%
    18:00 +14°C° 0 mm 3 m/S 741 mmHg 62%
    19:00 +12°C° 0 mm 3 m/S 741 mmHg 69%
    20:00 +11°C° 0 mm 3 m/S 741 mmHg 69%
    21:00 +11°C° 0 mm 3 m/S 741 mmHg 70%
    22:00 +11°C° 0 mm 3 m/S 742 mmHg 70%
    23:00 +10°C° 0 mm 3 m/S 742 mmHg 71%

    30 März, Donnerstag

    Zeit Temperatur Niederschläge Wind Luftdruck Luftfeuchtigkeit
    00:00 +10°C° 0 mm 3 m/S 742 mmHg 73%
    01:00 +10°C° 0 mm 3 m/S 742 mmHg 74%
    02:00 +9°C° 0 mm 3 m/S 742 mmHg 76%
    03:00 +9°C° 0 mm 3 m/S 742 mmHg 78%
    04:00 +9°C° 0 mm 3 m/S 742 mmHg 79%
    05:00 +10°C° 0 mm 3 m/S 742 mmHg 77%
    06:00 +11°C° 0 mm 3 m/S 742 mmHg 75%
    07:00 +11°C° 0 mm 3 m/S 742 mmHg 73%
    08:00 +13°C° 0 mm 3 m/S 742 mmHg 66%
    09:00 +16°C° 0 mm 3 m/S 742 mmHg 59%
    10:00 +18°C° 0 mm 3 m/S 742 mmHg 52%
    11:00 +19°C° 0 mm 3 m/S 742 mmHg 50%
    12:00 +20°C° 0 mm 3 m/S 742 mmHg 48%
    13:00 +21°C° 0 mm 4 m/S 741 mmHg 47%
    14:00 +20°C° 0 mm 4 m/S 741 mmHg 48%
    15:00 +20°C° 0 mm 4 m/S 741 mmHg 50%
    16:00 +20°C° 0 mm 4 m/S 741 mmHg 52%
    17:00 +18°C° 0 mm 4 m/S 741 mmHg 60%
    18:00 +16°C° 0 mm 3 m/S 741 mmHg 67%
    19:00 +13°C° 0 mm 3 m/S 742 mmHg 75%
    20:00 +13°C° 0 mm 3 m/S 742 mmHg 77%
    21:00 +12°C° 0 mm 3 m/S 742 mmHg 79%
    22:00 +12°C° 0 mm 3 m/S 743 mmHg 81%
    23:00 +12°C° 0 mm 3 m/S 742 mmHg 82%

    31 März, Freitag

    Zeit Temperatur Niederschläge Wind Luftdruck Luftfeuchtigkeit
    00:00 +11°C° 0 mm 3 m/S 742 mmHg 83%
    01:00 +11°C° 0 mm 3 m/S 742 mmHg 85%
    02:00 +11°C° 0 mm 3 m/S 742 mmHg 85%
    03:00 +11°C° 0 mm 3 m/S 742 mmHg 86%
    04:00 +10°C° 0 mm 3 m/S 742 mmHg 86%
    05:00 +11°C° 0 mm 3 m/S 742 mmHg 83%
    06:00 +12°C° 0 mm 3 m/S 742 mmHg 80%
    07:00 +12°C° 0 mm 3 m/S 743 mmHg 78%
    08:00 +14°C° 0 mm 3 m/S 743 mmHg 68%
    09:00 +17°C° 0 mm 3 m/S 743 mmHg 59%
    10:00 +19°C° 0 mm 2 m/S 743 mmHg 50%
    11:00 +20°C° 0 mm 2 m/S 742 mmHg 47%
    12:00 +21°C° 0 mm 2 m/S 742 mmHg 45%
    13:00 +23°C° 0 mm 2 m/S 741 mmHg 42%
    14:00 +21°C° 0 mm 2 m/S 741 mmHg 44%
    15:00 +21°C° 0 mm 3 m/S 741 mmHg 47%
    16:00 +20°C° 0 mm 3 m/S 740 mmHg 49%
    17:00 +18°C° 0 mm 2 m/S 740 mmHg 56%
    18:00 +16°C° 0 mm 2 m/S 740 mmHg 64%
    19:00 +14°C° 0 mm 2 m/S 740 mmHg 71%
    20:00 +14°C° 0 mm 1 m/S 740 mmHg 72%
    21:00 +13°C° 0 mm 1 m/S 740 mmHg 72%
    22:00 +13°C° 0 mm 1 m/S 740 mmHg 72%
    23:00 +12°C° 0 mm 1 m/S 740 mmHg 73%

    1 April, Samstag

    Zeit Temperatur Niederschläge Wind Luftdruck Luftfeuchtigkeit
    00:00 +12°C° 0 mm 1 m/S 740 mmHg 74%
    01:00 +12°C° 0 mm 1 m/S 740 mmHg 75%
    02:00 +11°C° 0 mm 1 m/S 740 mmHg 76%
    03:00 +11°C° 0 mm 1 m/S 739 mmHg 77%
    04:00 +11°C° 0 mm 1 m/S 739 mmHg 78%
    05:00 +12°C° 0 mm 1 m/S 739 mmHg 74%
    06:00 +13°C° 0 mm 1 m/S 739 mmHg 70%
    07:00 +15°C° 0 mm 1 m/S 739 mmHg 66%
    08:00 +16°C° 0 mm 1 m/S 739 mmHg 61%
    09:00 +18°C° 0 mm 2 m/S 739 mmHg 56%
    10:00 +20°C° 0 mm 2 m/S 739 mmHg 51%
    11:00 +20°C° 0 mm 2 m/S 739 mmHg 50%
    12:00 +20°C° 0 mm 3 m/S 738 mmHg 50%
    13:00 +21°C° 0 mm 3 m/S 738 mmHg 49%
    14:00 +20°C° 0,1 mm 3 m/S 738 mmHg 52%
    15:00 +19°C° 0,1 mm 3 m/S 737 mmHg 56%
    16:00 +19°C° 0,1 mm 2 m/S 737 mmHg 59%
    17:00 +17°C° 0 mm 2 m/S 737 mmHg 68%
    18:00 +15°C° 0 mm 2 m/S 737 mmHg 78%
    19:00 +13°C° 0 mm 2 m/S 737 mmHg 88%
    20:00 +12°C° 0 mm 1 m/S 737 mmHg 88%
    21:00 +12°C° 0 mm 1 m/S 737 mmHg 89%
    22:00 +12°C° 0 mm 1 m/S 737 mmHg 89%
    23:00 +11°C° 0 mm 1 m/S 737 mmHg 89%
    Mehr zeigen